User: anonymous   Login
Location: S�tio Afonso Gruber
(26.1760°S, 49.5250°W)
Time: 18:14:58
(UTC+00:00)
Language:

DELFI C3 - Orbit

View from above orbital plane
View from above orbital plane
View from above satellite
View from above satellite

Ground track
Ground track

The orbit data is extracted from the following two-line orbital elements,

1 32789U 08021G   22334.31700461  .00013304  00000-0  64835-3 0  9996
2 32789  97.3270 354.9669 0011303 102.0548 258.1954 15.18400795797152
Epoch (UTC): 30 November 2022 07:36:29
Eccentricity: 0.0011303
inclination: 97.3270°
perigee height: 503 km
apogee height: 518 km
right ascension of ascending node: 354.9669°
argument of perigee: 102.0548°
revolutions per day: 15.18400795
mean anomaly at epoch: 258.1954°
orbit number at epoch: 79715

The dashed part of the orbit path shows where the satellite is in the earth's shadow,  

DLR